Weather History for Avoca, PA

Change the Weather History Date:

Thursday, November 29, 2012

  Actual Average Record
Temperature  
Mean Temperature 35 °F 36 °F  
Max Temperature 40 °F 44 °F 67 °F (2005)
Min Temperature 30 °F 29 °F 9 °F (1955)
Degree Days  
Heating Degree Days 30 29  
Month to date heating degree days 738 681  
Since 1 July heating degree days 1196 1284  
Cooling Degree Days 0 0  
Month to date cooling degree days 0 0  
Year to date cooling degree days 864 580  
Moisture  
Dew Point 22 °F    
Average Humidity 60    
Maximum Humidity 69    
Minimum Humidity 50    
Precipitation  
Precipitation 0.00 in 0.11 in 1.44 in (1984)
Month to date precipitation 1.10 3.03  
Year to date precipitation 34.18 35.47  
Sea Level Pressure  
Sea Level Pressure 30.29 in    
Wind  
Wind Speed 6 mph (SW)    
Max Wind Speed 15 mph    
Max Gust Speed 22 mph    
Visibility 9 miles    
Events      
T = Trace of Precipitation, MM = Missing Value Source: NWS Daily Summary

Daily Weather History Graph

Daily Weather History Graph

Search for Another Location

Airport:

Trip Planner

Search our weather history database for the weather conditions in past years. The results will help you decide how hot, cold, wet, or windy it might be!

Date:

Astronomy

Nov. 29, 2012 Rise Set
Actual Time 7:07 AM EST 4:34 PM EST
Civil Twilight 6:37 AM EST 5:05 PM EST
Nautical Twilight 6:02 AM EST 5:39 PM EST
Astronomical Twilight 5:29 AM EST 6:12 PM EST
Moon 5:35 PM EST 7:52 AM EST
Length of Visible Light 10h 28m
Length of Day
9h 27m
Full, 99% of the Moon is Illuminated
Nov 29
Full
Dec 6
Last Quarter
Dec 13
New
Dec 20
First Quarter
Dec 28
Full

Hourly Weather History & Observations

Time (EST) Temp. Windchill Dew Point Humidity Pressure Visibility Wind Dir Wind Speed Gust Speed Precip Events Conditions
12:54 AM 30.9 °F 26.2 °F 21.0 °F 67% 30.27 in 10.0 mi SW 4.6 mph - N/A   Overcast
1:54 AM 32.0 °F 25.6 °F 19.9 °F 61% 30.27 in 10.0 mi WSW 6.9 mph - N/A   Overcast
2:54 AM 32.0 °F 27.5 °F 19.9 °F 61% 30.29 in 10.0 mi WSW 4.6 mph - N/A   Overcast
3:54 AM 32.0 °F 28.7 °F 21.0 °F 64% 30.28 in 10.0 mi WSW 3.5 mph - N/A   Overcast
4:54 AM 32.0 °F 24.8 °F 21.0 °F 64% 30.28 in 10.0 mi SW 8.1 mph - N/A   Overcast
5:54 AM 32.0 °F 26.4 °F 21.0 °F 64% 30.29 in 10.0 mi SSW 5.8 mph - N/A   Overcast
6:54 AM 30.2 °F 26.7 °F 21.2 °F 69% 30.28 in 9.0 mi SSW 3.5 mph - N/A   Clear
7:54 AM 30.0 °F 24.1 °F 21.0 °F 69% 30.33 in 7.0 mi SW 5.8 mph - N/A   Clear
8:54 AM 30.9 °F 25.2 °F 21.9 °F 69% 30.33 in 7.0 mi SSW 5.8 mph - N/A   Clear
9:54 AM 33.1 °F 26.1 °F 23.0 °F 66% 30.34 in 7.0 mi SSW 8.1 mph - N/A   Clear
10:54 AM 35.1 °F 28.6 °F 24.1 °F 64% 30.35 in 7.0 mi SW 8.1 mph - N/A   Clear
11:54 AM 36.0 °F 27.5 °F 24.1 °F 62% 30.32 in 8.0 mi SW 12.7 mph 19.6 mph N/A   Clear
12:54 PM 37.9 °F 30.9 °F 24.1 °F 57% 30.29 in 8.0 mi SW 10.4 mph 17.3 mph N/A   Clear
1:54 PM 39.0 °F 31.8 °F 24.1 °F 55% 30.27 in 8.0 mi SW 11.5 mph 18.4 mph N/A   Clear
2:54 PM 39.9 °F 32.5 °F 25.0 °F 55% 30.26 in 9.0 mi SW 12.7 mph - N/A   Clear
3:54 PM 39.0 °F 32.8 °F 23.0 °F 53% 30.26 in 9.0 mi SW 9.2 mph 18.4 mph N/A   Clear
4:54 PM 37.9 °F 32.7 °F 23.0 °F 55% 30.26 in 10.0 mi SW 6.9 mph - N/A   Clear
5:54 PM 37.0 °F 32.4 °F 23.0 °F 57% 30.28 in 10.0 mi SW 5.8 mph - N/A   Clear
6:54 PM 36.0 °F 31.1 °F 23.0 °F 59% 30.28 in 10.0 mi SW 5.8 mph - N/A   Clear
7:54 PM 35.1 °F 32.2 °F 21.9 °F 59% 30.29 in 10.0 mi SSW 3.5 mph - N/A   Clear
8:54 PM 34.0 °F 31.0 °F 21.9 °F 61% 30.29 in 10.0 mi SSW 3.5 mph - N/A   Clear
9:54 PM 30.0 °F - 21.9 °F 72% 30.31 in 10.0 mi Calm Calm - N/A   Clear
10:54 PM 32.0 °F - 21.9 °F 66% 30.31 in 10.0 mi Calm Calm - N/A   Clear
11:54 PM 32.0 °F 28.7 °F 21.9 °F 66% 30.31 in 10.0 mi South 3.5 mph - N/A   Clear